TimeMST,TemperatureF,Dew PointF,Humidity,Sea Level PressureIn,VisibilityMPH,Wind Direction,Wind SpeedMPH,Gust SpeedMPH,PrecipitationIn,Events,Conditions,WindDirDegrees,DateUTC
12:16 AM,32.0,26.6,80,29.85,10.0,WNW,3.5,-,N/A,,Clear,300,2012-12-07 07:16:00
12:36 AM,32.0,26.6,80,29.84,10.0,Calm,Calm,-,N/A,,Clear,0,2012-12-07 07:36:00
12:56 AM,32.0,26.6,80,29.84,10.0,Calm,Calm,-,N/A,,Clear,0,2012-12-07 07:56:00
1:16 AM,32.0,26.6,80,29.83,10.0,SW,8.1,-,N/A,,Clear,230,2012-12-07 08:16:00
1:36 AM,32.0,26.6,80,29.81,10.0,WSW,15.0,-,N/A,,Clear,250,2012-12-07 08:36:00
1:55 AM,39.2,23.0,52,29.82,10.0,WSW,16.1,21.9,N/A,,Clear,250,2012-12-07 08:55:00
2:16 AM,41.0,23.0,49,29.82,10.0,SSW,9.2,20.7,N/A,,Clear,200,2012-12-07 09:16:00
2:36 AM,33.8,24.8,70,29.81,10.0,Calm,Calm,-,N/A,,Clear,0,2012-12-07 09:36:00
2:55 AM,42.8,17.6,36,29.80,10.0,NW,8.1,18.4,N/A,,Clear,310,2012-12-07 09:55:00
3:16 AM,35.6,21.2,56,29.80,10.0,NW,12.7,18.4,N/A,,Clear,310,2012-12-07 10:16:00
3:36 AM,32.0,21.2,64,29.80,10.0,ENE,4.6,-,N/A,,Scattered Clouds,60,2012-12-07 10:36:00
3:56 AM,30.2,23.0,75,29.79,10.0,North,8.1,-,N/A,,Scattered Clouds,360,2012-12-07 10:56:00
4:16 AM,32.0,23.0,69,29.80,10.0,NNW,5.8,-,N/A,,Mostly Cloudy,330,2012-12-07 11:16:00
4:36 AM,32.0,23.0,69,29.79,10.0,NNE,9.2,-,N/A,,Overcast,30,2012-12-07 11:36:00
4:56 AM,32.0,21.2,64,29.80,10.0,North,5.8,-,N/A,,Mostly Cloudy,360,2012-12-07 11:56:00
5:45 AM,30.2,23.0,75,29.80,30.0,Variable,3.5,-,N/A,,Mostly Cloudy,0,2012-12-07 12:45:00
6:47 AM,44.6,19.4,37,29.82,50.0,WSW,9.2,-,N/A,,Mostly Cloudy,250,2012-12-07 13:47:00
7:47 AM,39.2,17.6,42,29.83,70.0,NNW,3.5,-,N/A,,Mostly Cloudy,340,2012-12-07 14:47:00
8:55 AM,46.4,15.8,29,29.84,70.0,SW,15.0,-,N/A,,Mostly Cloudy,230,2012-12-07 15:55:00
9:47 AM,50.0,15.8,26,29.84,60.0,WSW,18.4,27.6,N/A,,Mostly Cloudy,240,2012-12-07 16:47:00
10:54 AM,51.8,12.2,21,29.83,50.0,WSW,20.7,25.3,N/A,,Mostly Cloudy,250,2012-12-07 17:54:00
11:47 AM,53.6,12.2,19,29.82,50.0,NNE,11.5,18.4,N/A,,Mostly Cloudy,30,2012-12-07 18:47:00
12:34 PM,50.0,21.2,32,29.81,50.0,ENE,15.0,23.0,N/A,,Mostly Cloudy,60,2012-12-07 19:34:00
12:54 PM,46.4,21.2,37,29.82,50.0,ENE,13.8,21.9,N/A,,Mostly Cloudy,60,2012-12-07 19:54:00
1:51 PM,44.6,19.4,37,29.83,50.0,ENE,10.4,-,N/A,,Mostly Cloudy,60,2012-12-07 20:51:00
2:49 PM,44.6,19.4,37,29.85,50.0,ENE,5.8,-,N/A,,Mostly Cloudy,70,2012-12-07 21:49:00
3:53 PM,42.8,19.4,39,29.87,40.0,East,5.8,-,N/A,,Scattered Clouds,90,2012-12-07 22:53:00
5:52 PM,39.2,19.4,45,29.91,40.0,East,9.2,-,N/A,,Scattered Clouds,100,2012-12-08 00:52:00
6:50 PM,37.4,17.6,45,29.93,40.0,ESE,9.2,-,N/A,,Mostly Cloudy,110,2012-12-08 01:50:00
7:50 PM,37.4,17.6,45,29.93,40.0,SE,10.4,-,N/A,,Mostly Cloudy,140,2012-12-08 02:50:00
8:47 PM,35.6,17.6,48,29.92,40.0,SSE,10.4,-,N/A,,Mostly Cloudy,150,2012-12-08 03:47:00
9:45 PM,35.6,17.6,48,29.92,40.0,SSE,4.6,-,N/A,,Mostly Cloudy,160,2012-12-08 04:45:00
10:13 PM,33.8,19.4,56,29.90,10.0,SSE,5.8,-,N/A,,Scattered Clouds,160,2012-12-08 05:13:00
10:33 PM,33.8,19.4,56,29.90,10.0,South,4.6,-,N/A,,Mostly Cloudy,170,2012-12-08 05:33:00
10:56 PM,32.0,19.4,60,29.89,10.0,SSE,4.6,-,N/A,,Clear,150,2012-12-08 05:56:00
11:12 PM,32.0,19.4,60,29.89,10.0,SSE,3.5,-,N/A,,Clear,150,2012-12-08 06:12:00
11:33 PM,32.0,19.4,60,29.87,10.0,SE,4.6,-,N/A,,Clear,140,2012-12-08 06:33:00
11:52 PM,32.0,19.4,60,29.86,10.0,ESE,3.5,-,N/A,,Clear,120,2012-12-08 06:52:00